Aitkin, MN

1:48 PM CST on November 20, 2017 (GMT -0600)
Aitkin Municipal / Steve Kurtz Field

Weather History for KAIT - January, 2014

Change the Weather History Date:

Sunday, January 5, 2014

  Actual Average Record
Temperature  
Mean Temperature -15 °F -  
Max Temperature -7 °F 17 °F 53 °F (2012)
Min Temperature -23 °F -3 °F -24 °F (1973)
Degree Days  
Heating Degree Days 80    
Moisture  
Dew Point -25 °F    
Average Humidity 62    
Maximum Humidity 77    
Minimum Humidity 45    
Precipitation  
Precipitation 0.00 in - - ()
Sea Level Pressure  
Sea Level Pressure 30.25 in    
Wind  
Wind Speed 3 mph (WNW)    
Max Wind Speed 9 mph    
Max Gust Speed 16 mph    
Visibility 10 miles    
Events Snow    
Averages and records for this station are not official NWS values.
T = Trace of Precipitation, MM = Missing Value Source: NWS Daily Summary

Daily Weather History Graph

Daily Weather History Graph

Search for Another Location

Airport or City:

Trip Planner

Search our weather history database for the weather conditions in past years. The results will help you decide how hot, cold, wet, or windy it might be!

Date:

Astronomy

Jan. 05, 2014 Rise Set
Actual Time 7:58 AM CST 4:42 PM CST
Civil Twilight 7:23 AM CST 5:16 PM CST
Nautical Twilight 6:45 AM CST 5:54 PM CST
Astronomical Twilight 6:09 AM CST 6:31 PM CST
Moon 10:21 AM CST (1/5) 10:31 PM CST (1/5)
Length of Visible Light 9h 53m
Length of Day
8h 43m
Waxing Crescent, 25% of the Moon is Illuminated
Jan 5
Waxing Crescent
Jan 7
First Quarter
Jan 15
Full
Jan 23
Last Quarter
Jan 30
New

Hourly Weather History & Observations

Time (CST) Temp. Windchill Dew Point Humidity Pressure Visibility Wind Dir Wind Speed Gust Speed Precip Events Conditions
12:12 AM -9.4 °F - -16.6 °F 71% 30.19 in 10.0 mi Calm Calm - N/A   Clear
12:33 AM -9.4 °F -18.6 °F -18.4 °F 65% 30.20 in 10.0 mi West 3.5 mph - N/A   Clear
12:53 AM -11.2 °F - -18.4 °F 70% 30.20 in 10.0 mi Calm Calm - N/A   Clear
1:12 AM -11.2 °F -20.6 °F -18.4 °F 70% 30.20 in 10.0 mi West 3.5 mph - N/A   Clear
1:33 AM -11.2 °F - -18.4 °F 70% 30.20 in 10.0 mi Calm Calm - N/A   Clear
1:52 AM -11.2 °F - -20.2 °F 64% 30.21 in 10.0 mi Calm Calm - N/A   Clear
2:13 AM -13.0 °F -22.7 °F -20.2 °F 70% 30.21 in 10.0 mi West 3.5 mph - N/A   Clear
2:29 AM -13.0 °F -22.7 °F -20.2 °F 70% 30.21 in 10.0 mi West 3.5 mph - N/A   Clear
3:01 AM -14.8 °F -24.8 °F -20.2 °F 77% 30.21 in 10.0 mi West 3.5 mph - N/A   Clear
3:21 AM -14.8 °F -24.8 °F -20.2 °F 77% 30.21 in 10.0 mi West 3.5 mph - N/A   Clear
3:41 AM -14.8 °F -27.2 °F -22.0 °F 70% 30.22 in 10.0 mi West 4.6 mph - N/A   Clear
4:01 AM -14.8 °F -24.8 °F -22.0 °F 70% 30.22 in 10.0 mi West 3.5 mph - N/A   Clear
4:18 AM -14.8 °F -24.8 °F -23.8 °F 64% 30.22 in 10.0 mi West 3.5 mph - N/A   Clear
4:33 AM -14.8 °F - -23.8 °F 64% 30.22 in 10.0 mi Calm Calm - N/A   Clear
4:53 AM -18.4 °F - -25.6 °F 70% 30.22 in 10.0 mi Calm Calm - N/A   Clear
5:12 AM -16.6 °F -26.8 °F -25.6 °F 64% 30.22 in 10.0 mi West 3.5 mph - N/A   Clear
5:33 AM -16.6 °F - -23.8 °F 70% 30.22 in 10.0 mi Calm Calm - N/A   Clear
5:53 AM -16.6 °F - -25.6 °F 64% 30.24 in 10.0 mi Calm Calm - N/A   Clear
6:13 AM -16.6 °F - -25.6 °F 64% 30.24 in 10.0 mi Calm Calm - N/A   Clear
6:32 AM -18.4 °F -28.9 °F -25.6 °F 70% 30.26 in 10.0 mi West 3.5 mph - N/A   Clear
6:53 AM -18.4 °F - -25.6 °F 70% 30.26 in 10.0 mi Calm Calm - N/A   Clear
7:12 AM -18.4 °F - -25.6 °F 70% 30.26 in 10.0 mi Calm Calm - N/A   Clear
7:33 AM -23.8 °F - -29.2 °F 76% 30.27 in 10.0 mi Calm Calm - N/A   Clear
7:53 AM -23.8 °F - -32.8 °F 63% 30.27 in 10.0 mi Calm Calm - N/A   Clear
7:54 AM -23.8 °F - -32.8 °F 63% 30.27 in 10.0 mi Calm Calm - N/A   Clear
8:33 AM -23.8 °F - -31.0 °F 69% 30.28 in 10.0 mi Calm Calm - N/A   Clear
8:53 AM -22.0 °F - -29.2 °F 69% 30.28 in 10.0 mi Calm Calm - N/A   Clear
9:12 AM -16.6 °F - -25.6 °F 64% 30.29 in 10.0 mi Calm Calm - N/A   Clear
9:33 AM -14.8 °F -24.8 °F -22.0 °F 70% 30.29 in 10.0 mi West 3.5 mph - N/A   Clear
9:53 AM -14.8 °F - -20.2 °F 77% 30.29 in 10.0 mi Calm Calm - N/A   Clear
10:13 AM -13.0 °F - -20.2 °F 70% 30.30 in 10.0 mi Calm Calm - N/A   Clear
10:33 AM -11.2 °F - -20.2 °F 64% 30.29 in 10.0 mi Calm Calm - N/A   Clear
10:53 AM -11.2 °F -20.6 °F -20.2 °F 64% 30.29 in 10.0 mi West 3.5 mph - N/A   Clear
11:13 AM -11.2 °F -23.0 °F -20.2 °F 64% 30.28 in 10.0 mi North 4.6 mph - N/A   Clear
11:32 AM -11.2 °F -23.0 °F -20.2 °F 64% 30.27 in 10.0 mi NW 4.6 mph - N/A   Clear
11:53 AM -9.4 °F -18.6 °F -20.2 °F 59% 30.27 in 5.0 mi NW 3.5 mph - N/A   Haze
12:13 PM -9.4 °F -22.7 °F -20.2 °F 59% 30.26 in 10.0 mi WNW 5.8 mph - N/A   Clear
12:32 PM -9.4 °F -18.6 °F -20.2 °F 59% 30.26 in 10.0 mi WNW 3.5 mph - N/A   Clear
12:53 PM -9.4 °F -22.7 °F -20.2 °F 59% 30.25 in 7.0 mi NW 5.8 mph - N/A   Clear
1:13 PM -7.6 °F -18.8 °F -20.2 °F 54% 30.25 in 7.0 mi NW 4.6 mph - N/A   Scattered Clouds
1:32 PM -7.6 °F -22.1 °F -20.2 °F 54% 30.25 in 10.0 mi WNW 6.9 mph - N/A   Scattered Clouds
1:53 PM -7.6 °F -20.6 °F -20.2 °F 54% 30.25 in 7.0 mi WNW 5.8 mph - N/A   Scattered Clouds
2:13 PM -7.6 °F -23.4 °F -20.2 °F 54% 30.25 in 7.0 mi WNW 8.1 mph - N/A   Mostly Cloudy
2:33 PM -7.6 °F -22.1 °F -22.0 °F 50% 30.25 in 10.0 mi NW 6.9 mph - N/A   Mostly Cloudy
2:52 PM -9.4 °F -22.7 °F -22.0 °F 54% 30.25 in 7.0 mi WNW 5.8 mph - N/A   Mostly Cloudy
3:13 PM -7.6 °F -22.1 °F -23.8 °F 45% 30.25 in 10.0 mi WNW 6.9 mph - N/A   Scattered Clouds
3:33 PM -9.4 °F -24.3 °F -23.8 °F 49% 30.26 in 10.0 mi NW 6.9 mph - N/A   Scattered Clouds
3:52 PM -9.4 °F -22.7 °F -23.8 °F 49% 30.26 in 10.0 mi NW 5.8 mph - N/A   Clear
4:13 PM -11.2 °F -27.8 °F -25.6 °F 49% 30.26 in 10.0 mi WNW 8.1 mph - N/A   Clear
4:33 PM -11.2 °F -29.0 °F -25.6 °F 49% 30.26 in 10.0 mi NW 9.2 mph - N/A   Clear
4:52 PM -11.2 °F -26.4 °F -25.6 °F 49% 30.26 in 10.0 mi WNW 6.9 mph - N/A   Clear
5:13 PM -13.0 °F -25.1 °F -25.6 °F 53% 30.26 in 10.0 mi NW 4.6 mph - N/A   Clear
5:33 PM -14.8 °F -24.8 °F -25.6 °F 58% 30.27 in 10.0 mi NW 3.5 mph - N/A   Clear
5:52 PM -14.8 °F -29.1 °F -25.6 °F 58% 30.26 in 10.0 mi NW 5.8 mph - N/A   Clear
6:13 PM -16.6 °F -26.8 °F -25.6 °F 64% 30.27 in 10.0 mi NW 3.5 mph - N/A   Clear
6:32 PM -16.6 °F - -25.6 °F 64% 30.26 in 10.0 mi Calm Calm - N/A   Clear
6:53 PM -16.6 °F -31.3 °F -27.4 °F 58% 30.26 in 10.0 mi WNW 5.8 mph - N/A   Clear
7:13 PM -16.6 °F -29.3 °F -27.4 °F 58% 30.26 in 10.0 mi WNW 4.6 mph - N/A   Clear
7:33 PM -16.6 °F -31.3 °F -29.2 °F 53% 30.26 in 10.0 mi WNW 5.8 mph 16.1 mph N/A   Clear
7:53 PM -18.4 °F -36.6 °F -29.2 °F 58% 30.26 in 10.0 mi WNW 8.1 mph - N/A   Clear
8:12 PM -18.4 °F -36.6 °F -29.2 °F 58% 30.26 in 10.0 mi WNW 8.1 mph - N/A   Clear
8:33 PM -18.4 °F -35.1 °F -29.2 °F 58% 30.26 in 7.0 mi WNW 6.9 mph - N/A   Mostly Cloudy
8:52 PM -20.2 °F -38.8 °F -31.0 °F 58% 30.26 in 7.0 mi WNW 8.1 mph - N/A   Scattered Clouds
9:13 PM -20.2 °F -37.3 °F -32.8 °F 52% 30.25 in 10.0 mi NW 6.9 mph - N/A   Clear
9:33 PM -20.2 °F -33.5 °F -32.8 °F 52% 30.25 in 10.0 mi WNW 4.6 mph - N/A   Clear
9:52 PM -20.2 °F -35.5 °F -32.8 °F 52% 30.25 in 10.0 mi WNW 5.8 mph - N/A   Clear
10:13 PM -22.0 °F -35.6 °F -32.8 °F 57% 30.24 in 10.0 mi WNW 4.6 mph - N/A   Scattered Clouds
10:33 PM -22.0 °F -37.7 °F -32.8 °F 57% 30.23 in 10.0 mi WNW 5.8 mph - N/A   Scattered Clouds
10:52 PM -22.0 °F -35.6 °F -32.8 °F 57% 30.23 in 10.0 mi WNW 4.6 mph - N/A   Clear
11:13 PM -22.0 °F -33.0 °F -32.8 °F 57% 30.22 in 10.0 mi WNW 3.5 mph - N/A   Scattered Clouds
11:33 PM -20.2 °F -38.8 °F -32.8 °F 52% 30.21 in 7.0 mi WNW 8.1 mph - N/A Snow Light Snow
11:52 PM -22.0 °F -37.7 °F -32.8 °F 57% 30.21 in 10.0 mi WNW 5.8 mph - N/A   Clear